Simultaneous Nadir Overpasses (SNOs) Predictions

Prediction of SNOs between AURA and NPP Satellite Orbit:

Table of predicted SNOs for the next 14.0 days since TLE Epoch: 3/21/2014
Index Date (AURA) Time (AURA) Lat,Lon (AURA) SZA (AURA ) Date (NPP) Time (NPP) Lat,Lon (NPP) SZA (NPP ) Distance(km) Time Diff (sec)
1 03/24/2014 08:58:05 -77.92, 113.84 86.66 03/24/2014 08:57:18 -77.91, 113.81 86.62 0.90 47
2 03/24/2014 09:47:18 78.47, -75.86 92.63 03/24/2014 09:47:48 78.48, -75.74 92.58 2.94 30
3 03/27/2014 01:14:33 -78.09,-129.50 87.95 03/27/2014 01:14:15 -78.09,-129.52 87.93 0.30 18
4 03/27/2014 02:03:49 78.50, 40.19 91.51 03/27/2014 02:04:49 78.49, 40.09 91.48 2.47 60
5 03/29/2014 16:41:46 77.82, 177.48 91.35 03/29/2014 16:40:38 77.82, 177.55 91.39 1.58 68
6 03/29/2014
